Hourly Weather Gogolevka

Today, 22 October, Thursday

Time Temperature Precipitation Wind Pressure Humidity
00:00 +5°C° 0 mm 2 mps 741 mmHg 95%
01:00 +5°C° 0 mm 2 mps 741 mmHg 95%
02:00 +4°C° 0 mm 3 mps 741 mmHg 93%
03:00 +4°C° 0.2 mm 3 mps 740 mmHg 93%
04:00 +5°C° 0.2 mm 4 mps 740 mmHg 93%
05:00 +5°C° 0.2 mm 4 mps 739 mmHg 93%
06:00 +6°C° 0.6 mm 4 mps 739 mmHg 93%
07:00 +6°C° 0.6 mm 4 mps 739 mmHg 94%
08:00 +6°C° 0.6 mm 5 mps 738 mmHg 94%
09:00 +7°C° 0.2 mm 5 mps 738 mmHg 89%
10:00 +8°C° 0.2 mm 5 mps 738 mmHg 85%
11:00 +9°C° 0.2 mm 6 mps 738 mmHg 81%
12:00 +10°C° 0 mm 6 mps 737 mmHg 79%
13:00 +11°C° 0 mm 6 mps 737 mmHg 77%
14:00 +13°C° 0 mm 6 mps 737 mmHg 74%
15:00 +11°C° 0 mm 6 mps 737 mmHg 77%
16:00 +11°C° 0 mm 6 mps 737 mmHg 79%
17:00 +11°C° 0 mm 6 mps 736 mmHg 81%
18:00 +11°C° 0 mm 6 mps 737 mmHg 81%
19:00 +11°C° 0 mm 6 mps 737 mmHg 81%
20:00 +11°C° 0 mm 7 mps 737 mmHg 81%
21:00 +11°C° 0 mm 6 mps 737 mmHg 81%
22:00 +11°C° 0 mm 6 mps 737 mmHg 82%
23:00 +11°C° 0 mm 6 mps 738 mmHg 82%

Tomorrow, 23 October, Friday

Time Temperature Precipitation Wind Pressure Humidity
00:00 +12°C° 0 mm 5 mps 738 mmHg 85%
01:00 +10°C° 0 mm 5 mps 738 mmHg 88%
02:00 +11°C° 0 mm 4 mps 739 mmHg 91%
03:00 +10°C° 0 mm 4 mps 739 mmHg 92%
04:00 +10°C° 0 mm 4 mps 738 mmHg 94%
05:00 +10°C° 0 mm 4 mps 738 mmHg 95%
06:00 +10°C° 0 mm 4 mps 738 mmHg 95%
07:00 +10°C° 0 mm 4 mps 738 mmHg 95%
08:00 +10°C° 0 mm 4 mps 738 mmHg 95%
09:00 +10°C° 0 mm 5 mps 737 mmHg 90%
10:00 +12°C° 0 mm 5 mps 737 mmHg 84%
11:00 +13°C° 0 mm 6 mps 737 mmHg 79%
12:00 +13°C° 0.7 mm 6 mps 736 mmHg 83%
13:00 +13°C° 0.7 mm 6 mps 736 mmHg 86%
14:00 +12°C° 0.7 mm 5 mps 736 mmHg 89%
15:00 +12°C° 0.2 mm 5 mps 736 mmHg 89%
16:00 +12°C° 0.2 mm 5 mps 736 mmHg 89%
17:00 +12°C° 0.2 mm 5 mps 736 mmHg 88%
18:00 +11°C° 0.1 mm 4 mps 736 mmHg 89%
19:00 +11°C° 0.1 mm 4 mps 736 mmHg 91%
20:00 +10°C° 0.1 mm 4 mps 736 mmHg 92%
21:00 +10°C° 0 mm 4 mps 737 mmHg 92%
22:00 +9°C° 0 mm 3 mps 737 mmHg 91%
23:00 +8°C° 0 mm 3 mps 737 mmHg 91%

Day after tomorrow, 24 October, Saturday

Time Temperature Precipitation Wind Pressure Humidity
00:00 +8°C° 0 mm 3 mps 737 mmHg 92%
01:00 +7°C° 0 mm 3 mps 738 mmHg 93%
02:00 +7°C° 0 mm 3 mps 738 mmHg 95%
03:00 +7°C° 0 mm 2 mps 738 mmHg 95%
04:00 +7°C° 0 mm 2 mps 738 mmHg 96%
05:00 +7°C° 0 mm 2 mps 738 mmHg 97%
06:00 +7°C° 0 mm 2 mps 738 mmHg 96%
07:00 +7°C° 0 mm 2 mps 738 mmHg 96%
08:00 +7°C° 0 mm 2 mps 738 mmHg 96%
09:00 +8°C° 0 mm 2 mps 738 mmHg 91%
10:00 +9°C° 0 mm 2 mps 738 mmHg 86%
11:00 +10°C° 0 mm 2 mps 739 mmHg 81%
12:00 +10°C° 0 mm 2 mps 738 mmHg 79%
13:00 +12°C° 0 mm 2 mps 738 mmHg 77%
14:00 +12°C° 0 mm 2 mps 738 mmHg 75%
15:00 +10°C° 0 mm 2 mps 738 mmHg 79%
16:00 +10°C° 0 mm 2 mps 738 mmHg 83%
17:00 +9°C° 0 mm 2 mps 738 mmHg 87%
18:00 +9°C° 0.1 mm 2 mps 738 mmHg 90%
19:00 +9°C° 0.1 mm 2 mps 738 mmHg 92%
20:00 +8°C° 0.1 mm 3 mps 738 mmHg 95%
21:00 +8°C° 0.1 mm 3 mps 738 mmHg 93%
22:00 +7°C° 0.1 mm 4 mps 738 mmHg 90%
23:00 +7°C° 0.1 mm 4 mps 738 mmHg 88%

, 25 October, Sunday

Time Temperature Precipitation Wind Pressure Humidity
00:00 +7°C° 0 mm 4 mps 738 mmHg 88%
01:00 +8°C° 0 mm 4 mps 739 mmHg 88%
02:00 +8°C° 0 mm 4 mps 739 mmHg 88%
03:00 +8°C° 0 mm 4 mps 739 mmHg 87%
04:00 +7°C° 0 mm 4 mps 740 mmHg 86%
05:00 +8°C° 0 mm 3 mps 740 mmHg 86%
06:00 +8°C° 0 mm 3 mps 741 mmHg 87%
07:00 +7°C° 0 mm 3 mps 741 mmHg 88%
08:00 +7°C° 0 mm 3 mps 741 mmHg 89%
09:00 +8°C° 0 mm 3 mps 742 mmHg 85%
10:00 +9°C° 0 mm 3 mps 743 mmHg 81%
11:00 +10°C° 0 mm 3 mps 743 mmHg 76%
12:00 +10°C° 0 mm 3 mps 743 mmHg 76%
13:00 +10°C° 0 mm 3 mps 744 mmHg 76%
14:00 +11°C° 0 mm 3 mps 744 mmHg 76%
15:00 +10°C° 0 mm 2 mps 744 mmHg 77%
16:00 +10°C° 0 mm 2 mps 744 mmHg 79%
17:00 +10°C° 0 mm 1 mps 744 mmHg 81%
18:00 +10°C° 0 mm 1 mps 744 mmHg 81%
19:00 +10°C° 0 mm 1 mps 745 mmHg 82%
20:00 +10°C° 0 mm 1 mps 745 mmHg 83%
21:00 +10°C° 0 mm 1 mps 745 mmHg 84%
22:00 +10°C° 0 mm 1 mps 745 mmHg 85%
23:00 +9°C° 0 mm 2 mps 746 mmHg 86%

25 October, Sunday

Time Temperature Precipitation Wind Pressure Humidity
00:00 +7°C° 0 mm 4 mps 738 mmHg 88%
01:00 +8°C° 0 mm 4 mps 739 mmHg 88%
02:00 +8°C° 0 mm 4 mps 739 mmHg 88%
03:00 +8°C° 0 mm 4 mps 739 mmHg 87%
04:00 +7°C° 0 mm 4 mps 740 mmHg 86%
05:00 +8°C° 0 mm 3 mps 740 mmHg 86%
06:00 +8°C° 0 mm 3 mps 741 mmHg 87%
07:00 +7°C° 0 mm 3 mps 741 mmHg 88%
08:00 +7°C° 0 mm 3 mps 741 mmHg 89%
09:00 +8°C° 0 mm 3 mps 742 mmHg 85%
10:00 +9°C° 0 mm 3 mps 743 mmHg 81%
11:00 +10°C° 0 mm 3 mps 743 mmHg 76%
12:00 +10°C° 0 mm 3 mps 743 mmHg 76%
13:00 +10°C° 0 mm 3 mps 744 mmHg 76%
14:00 +11°C° 0 mm 3 mps 744 mmHg 76%
15:00 +10°C° 0 mm 2 mps 744 mmHg 77%
16:00 +10°C° 0 mm 2 mps 744 mmHg 79%
17:00 +10°C° 0 mm 1 mps 744 mmHg 81%
18:00 +10°C° 0 mm 1 mps 744 mmHg 81%
19:00 +10°C° 0 mm 1 mps 745 mmHg 82%
20:00 +10°C° 0 mm 1 mps 745 mmHg 83%
21:00 +10°C° 0 mm 1 mps 745 mmHg 84%
22:00 +10°C° 0 mm 1 mps 745 mmHg 85%
23:00 +9°C° 0 mm 2 mps 746 mmHg 86%

26 October, Monday

Time Temperature Precipitation Wind Pressure Humidity
00:00 +8°C° 0 mm 2 mps 746 mmHg 88%
01:00 +8°C° 0 mm 2 mps 746 mmHg 90%
02:00 +7°C° 0 mm 2 mps 746 mmHg 91%
03:00 +7°C° 0 mm 2 mps 746 mmHg 91%
04:00 +7°C° 0 mm 2 mps 746 mmHg 92%
05:00 +7°C° 0 mm 2 mps 746 mmHg 92%
06:00 +7°C° 0 mm 2 mps 746 mmHg 92%
07:00 +6°C° 0 mm 2 mps 746 mmHg 92%
08:00 +6°C° 0 mm 2 mps 747 mmHg 92%
09:00 +7°C° 0 mm 3 mps 747 mmHg 86%
10:00 +7°C° 0 mm 4 mps 747 mmHg 80%
11:00 +8°C° 0 mm 4 mps 747 mmHg 74%
12:00 +8°C° 0 mm 4 mps 747 mmHg 74%
13:00 +8°C° 0 mm 4 mps 747 mmHg 74%
14:00 +8°C° 0 mm 4 mps 746 mmHg 74%
15:00 +8°C° 0 mm 4 mps 746 mmHg 77%
16:00 +9°C° 0 mm 3 mps 746 mmHg 79%
17:00 +8°C° 0 mm 3 mps 746 mmHg 82%
18:00 +8°C° 0 mm 3 mps 746 mmHg 83%
19:00 +7°C° 0 mm 4 mps 746 mmHg 85%
20:00 +6°C° 0 mm 4 mps 746 mmHg 87%
21:00 +6°C° 0 mm 4 mps 746 mmHg 88%
22:00 +6°C° 0 mm 4 mps 745 mmHg 89%
23:00 +5°C° 0 mm 4 mps 745 mmHg 89%

27 October, Tuesday

Time Temperature Precipitation Wind Pressure Humidity
00:00 +5°C° 0 mm 4 mps 745 mmHg 89%
01:00 +5°C° 0 mm 4 mps 745 mmHg 89%
02:00 +5°C° 0 mm 4 mps 745 mmHg 89%
03:00 +6°C° 0 mm 4 mps 744 mmHg 88%
04:00 +6°C° 0 mm 4 mps 744 mmHg 87%
05:00 +6°C° 0 mm 4 mps 744 mmHg 86%
06:00 +6°C° 0.1 mm 5 mps 744 mmHg 87%
07:00 +6°C° 0.1 mm 5 mps 744 mmHg 87%
08:00 +7°C° 0.1 mm 5 mps 744 mmHg 87%
09:00 +7°C° 0.1 mm 5 mps 744 mmHg 87%
10:00 +7°C° 0.1 mm 5 mps 744 mmHg 87%
11:00 +7°C° 0.1 mm 5 mps 744 mmHg 86%
12:00 +8°C° 0.1 mm 5 mps 744 mmHg 84%
13:00 +8°C° 0.1 mm 5 mps 744 mmHg 82%
14:00 +9°C° 0.1 mm 5 mps 744 mmHg 80%
15:00 +8°C° 0 mm 5 mps 744 mmHg 83%
16:00 +7°C° 0 mm 5 mps 744 mmHg 86%
17:00 +7°C° 0 mm 4 mps 744 mmHg 89%
18:00 +7°C° 0 mm 4 mps 744 mmHg 90%
19:00 +6°C° 0 mm 4 mps 744 mmHg 91%
20:00 +6°C° 0 mm 4 mps 744 mmHg 92%
21:00 +6°C° 0 mm 4 mps 744 mmHg 91%
22:00 +8°C° 0 mm 3 mps 744 mmHg 91%
23:00 +8°C° 0 mm 3 mps 744 mmHg 90%
Show more